TimePDT,TemperatureF,Dew PointF,Humidity,Sea Level PressureIn,VisibilityMPH,Wind Direction,Wind SpeedMPH,Gust SpeedMPH,PrecipitationIn,Events,Conditions,WindDirDegrees,DateUTC
12:53 AM,50.0,41.0,71,29.95,10.0,Calm,Calm,-,N/A,,Partly Cloudy,0,2013-05-24 07:53:00
1:53 AM,51.1,41.0,68,29.95,10.0,SW,3.5,-,N/A,,Clear,230,2013-05-24 08:53:00
2:53 AM,53.1,41.0,64,29.96,10.0,SW,13.8,24.2,N/A,,Overcast,230,2013-05-24 09:53:00
3:53 AM,50.0,43.0,77,29.96,10.0,SW,16.1,21.9,N/A,,Mostly Cloudy,220,2013-05-24 10:53:00
4:53 AM,48.0,44.1,86,29.98,10.0,SW,13.8,-,0.03,Rain,Rain,230,2013-05-24 11:53:00
5:53 AM,46.9,44.1,90,29.99,5.0,SW,5.8,-,0.08,Rain,Rain,230,2013-05-24 12:53:00
6:53 AM,48.0,46.0,93,30.00,10.0,Calm,Calm,-,0.02,,Overcast,0,2013-05-24 13:53:00
7:53 AM,50.0,45.0,83,30.01,10.0,SSW,6.9,-,N/A,,Overcast,210,2013-05-24 14:53:00
8:53 AM,52.0,44.1,74,30.02,10.0,SW,6.9,-,0.00,,Overcast,230,2013-05-24 15:53:00
9:53 AM,54.0,44.1,69,30.01,10.0,SW,10.4,-,N/A,,Mostly Cloudy,220,2013-05-24 16:53:00
10:53 AM,55.9,43.0,62,30.00,10.0,WSW,13.8,-,N/A,,Mostly Cloudy,250,2013-05-24 17:53:00
11:00 AM,55.4,42.8,63,30.00,10.0,SW,9.2,-,N/A,,Overcast,220,2013-05-24 18:00:00
11:53 AM,59.0,42.1,53,30.00,10.0,WSW,8.1,-,N/A,,Overcast,240,2013-05-24 18:53:00
12:49 PM,55.4,44.6,67,30.00,10.0,NW,13.8,-,N/A,,Mostly Cloudy,310,2013-05-24 19:49:00
12:53 PM,55.0,45.0,69,30.00,10.0,NW,12.7,-,N/A,,Mostly Cloudy,310,2013-05-24 19:53:00
1:53 PM,62.1,43.0,50,29.99,10.0,West,8.1,-,N/A,,Scattered Clouds,270,2013-05-24 20:53:00
2:53 PM,62.1,44.1,52,29.99,10.0,Variable,3.5,-,0.00,,Partly Cloudy,0,2013-05-24 21:53:00
3:53 PM,63.0,41.0,45,29.98,10.0,SW,9.2,19.6,N/A,,Scattered Clouds,220,2013-05-24 22:53:00
4:53 PM,64.0,39.9,41,29.98,10.0,West,11.5,-,N/A,,Partly Cloudy,270,2013-05-24 23:53:00
5:53 PM,66.0,41.0,40,29.98,10.0,WSW,11.5,-,N/A,,Partly Cloudy,250,2013-05-25 00:53:00
6:53 PM,64.9,41.0,42,29.98,10.0,WSW,12.7,-,N/A,,Clear,250,2013-05-25 01:53:00
7:53 PM,62.1,42.1,48,29.99,10.0,WSW,6.9,-,N/A,,Clear,250,2013-05-25 02:53:00
8:53 PM,57.9,42.1,56,29.99,10.0,WSW,5.8,-,N/A,,Clear,240,2013-05-25 03:53:00
9:53 PM,55.9,43.0,62,30.00,10.0,SSW,5.8,-,N/A,,Clear,210,2013-05-25 04:53:00
10:53 PM,53.1,43.0,69,29.99,10.0,Calm,Calm,-,N/A,,Clear,0,2013-05-25 05:53:00
11:53 PM,48.9,43.0,80,29.98,10.0,Calm,Calm,-,N/A,,Clear,0,2013-05-25 06:53:00